Temp
34 35 35 36 37 38 38 39 38 38 38 38 38 38 39 39 39 40 40 40 40 41 41 40 40 39 37 36 36 36 36 36 36 35 35 35 35 35 36 35 35 35 35 35 35 35 36 36 37 38 39 39 39 38 38 39 39 39 39 39 39 39 39 39 39 40 40 41 42
35 34 34 34 34 35 37 37 38 38 38 39 39 38 38 38 39 40 39 39 40 40 40 40 38 37 36 36 35 35 35 35 35 35 34 34 34 35 35 35 35 35 35 35 35 36 36 36 37 38 39 39 39 38 38 38 38 38 39 39 39 39 39 39 39 39 39 40 41
34 33 33 33 34 35 36 38 38 37 36 37 37 38 37 38 39 39 40 39 38 37 37 38 37 36 36 36 35 34 34 35 35 35 35 35 35 34 34 34 34 34 34 35 35 36 37 36 37 38 39 40 38 38 38 38 37 38 38 38 39 40 40 41 40 39 39 40 40
33 33 34 35 35 35 36 38 37 37 36 37 36 35 36 37 37 38 38 36 35 35 36 37 36 35 35 35 35 34 34 34 34 34 35 35 35 35 35 34 34 34 34 35 35 35 35 35 36 37 38 38 37 38 38 39 37 38 38 39 39 40 40 41 40 40 41 41 40
33 34 34 35 35 35 35 35 35 36 36 36 36 36 36 36 36 36 35 35 36 37 37 36 35 34 34 34 34 34 34 34 34 34 35 35 35 35 35 34 34 35 35 35 35 35 35 35 36 37 37 37 38 38 38 38 37 38 39 40 40 40 41 41 40 41 41 41 41
34 34 34 34 34 34 34 34 34 34 34 34 35 35 36 37 37 37 37 37 37 36 35 34 33 33 33 33 33 33 34 34 34 34 34 34 35 35 34 34 34 35 35 35 35 35 35 35 37 38 38 38 38 38 38 37 37 37 38 39 40 40 40 40 41 41 40 40 40
36 35 35 34 34 33 33 33 33 33 33 33 34 34 35 36 35 35 35 36 36 36 35 35 34 34 34 33 33 33 34 34 34 33 33 34 35 34 34 35 35 35 35 35 35 35 35 34 37 38 38 38 39 38 37 36 37 37 38 39 40 40 39 38 40 40 40 39 39
35 36 36 36 35 34 34 34 33 33 34 35 35 35 35 34 34 34 34 35 36 36 36 36 36 35 34 34 33 33 33 33 34 34 33 34 34 34 34 34 34 34 34 35 35 35 35 35 37 37 37 37 39 39 37 36 36 37 38 38 39 39 39 39 39 39 39 39 38
35 35 35 35 35 35 35 34 33 34 34 34 34 34 34 34 34 34 34 36 37 37 36 36 36 35 35 34 33 33 33 33 34 34 34 34 34 34 34 34 34 34 34 34 35 34 35 36 37 38 38 39 40 39 38 36 36 36 37 38 38 38 38 38 37 38 38 38 38
36 36 35 35 35 34 34 34 33 33 33 34 34 34 34 34 34 35 35 37 37 36 36 36 36 36 35 35 35 35 35 35 35 34 34 35 34 34 34 35 35 35 35 35 35 35 34 35 36 37 37 37 37 37 37 36 36 36 37 38 38 37 37 37 37 37 38 38 38
35 35 35 35 35 34 33 33 34 34 34 35 35 34 34 34 34 35 36 36 35 35 35 36 36 36 36 36 36 35 36 36 37 37 36 36 36 36 36 37 37 37 37 37 36 36 36 36 36 36 36 36 36 36 36 36 36 36 36 37 37 37 37 37 37 37 37 38 38
34 34 34 34 33 33 33 34 35 35 35 35 35 35 35 35 35 36 36 36 35 36 37 37 37 37 37 38 38 38 38 37 38 38 38 38 38 38 38 38 38 38 38 38 38 38 38 37 37 36 36 36 36 36 36 36 36 36 36 36 37 37 37 37 37 37 37 37 37
34 33 33 33 33 33 33 34 35 35 35 35 35 36 36 37 37 37 37 37 37 38 39 39 38 38 38 39 39 39 39 39 39 39 39 39 39 39 39 39 39 39 39 39 39 39 39 38 38 37 37 36 37 37 37 36 36 36 36 36 36 36 36 37 37 37 37 36 37
33 33 33 33 33 33 34 35 36 37 37 36 37 38 39 39 39 39 39 39 39 40 40 40 40 40 40 39 39 39 39 40 39 39 39 39 39 39 39 40 40 39 39 40 39 39 39 39 38 38 38 37 38 38 37 37 36 36 36 36 36 36 36 37 37 37 36 36 36
33 33 33 33 34 34 35 35 38 39 39 38 39 40 40 41 41 41 40 40 39 40 40 39 40 40 39 39 39 39 39 39 39 39 39 39 39 39 39 40 40 40 40 40 39 39 39 39 39 39 39 38 38 38 38 37 37 37 37 37 37 37 37 37 37 37 37 36 36
33 34 34 34 34 35 36 37 39 40 39 39 40 40 40 41 41 41 40 39 39 39 39 39 38 38 38 38 38 38 38 38 38 38 38 38 39 39 39 39 39 40 40 39 39 39 39 39 39 39 39 39 39 39 39 38 38 38 38 38 38 37 37 37 37 37 37 37 37
34 34 34 34 34 35 36 37 39 39 39 39 39 39 39 40 40 40 39 38 39 38 38 37 38 38 38 38 38 37 37 37 37 38 38 38 38 38 38 39 39 39 39 39 39 39 39 39 39 39 39 39 39 39 39 39 39 38 38 38 38 38 38 38 38 38 38 37 37
34 34 34 34 34 35 36 37 38 38 38 38 38 38 38 38 38 38 38 38 37 37 36 36 36 36 36 36 36 37 37 36 36 37 37 37 37 37 38 38 38 38 38 38 38 38 39 39 39 39 39 39 39 39 39 39 39 39 39 39 39 39 39 39 39 39 39 38 38
33 33 34 34 35 35 36 37 37 38 38 38 38 37 37 36 36 36 36 36 36 35 35 35 35 35 35 35 35 35 36 36 35 35 36 36 36 36 37 37 37 37 37 37 37 38 38 38 38 38 38 39 39 39 39 39 39 39 39 39 39 39 39 40 40 40 40 39 39
33 33 34 35 35 36 37 37 37 38 38 37 37 36 35 35 35 34 34 34 35 35 34 34 34 34 34 34 34 34 34 35 35 34 34 35 35 35 35 35 36 36 36 36 37 37 37 37 37 38 38 38 38 38 38 39 39 39 39 39 39 39 40 40 40 40 40 40 40
33 34 35 35 36 36 37 37 37 37 37 36 36 35 34 34 34 33 33 34 34 34 33 33 33 33 33 33 33 33 33 34 34 34 34 34 34 34 34 35 35 35 35 35 36 36 36 36 37 37 37 37 37 37 38 38 38 38 38 39 39 39 40 40 40 40 40 40 40
34 34 35 36 36 36 36 37 36 36 36 35 35 35 34 34 33 33 33 33 33 32 32 31 31 32 32 32 32 32 32 33 33 33 33 33 33 34 34 34 34 33 33 34 34 34 35 35 35 35 36 36 36 36 37 37 37 38 38 38 38 39 39 39 40 40 40 40 40
34 35 35 36 36 36 36 36 35 35 35 34 34 34 34 34 33 33 32 32 31 31 31 31 31 31 31 31 31 31 31 31 31 31 32 32 32 32 32 33 32 32 32 33 33 33 33 34 34 34 35 36 35 36 36 37 37 37 37 38 38 38 39 39 40 40 40 41 41
34 35 36 37 36 35 35 35 35 34 34 34 34 34 33 33 32 31 31 30 30 30 29 29 30 30 30 30 30 30 30 30 30 30 30 30 31 31 31 31 32 32 33 33 33 33 33 34 34 34 35 36 36 36 37 37 37 38 38 38 38 39 39 39 40 40 40 41 41
34 34 35 35 35 35 34 34 34 34 34 34 34 34 33 32 32 31 30 29 29 29 29 29 29 30 30 30 30 30 30 29 29 29 29 29 30 30 31 32 32 32 32 32 34 34 35 34 34 35 35 36 36 36 36 37 37 37 38 38 38 39 39 39 40 40 40 41 41
34 33 33 34 34 34 33 33 33 33 34 34 34 33 33 32 31 30 29 29 29 29 29 29 29 29 29 29 29 29 29 29 29 29 29 29 29 30 30 31 32 32 32 33 34 34 34 35 35 34 34 35 35 35 35 36 36 35 36 37 37 38 38 39 39 40 41 41 41
32 32 32 33 33 33 33 33 33 33 33 33 33 33 32 32 31 30 30 29 29 29 29 29 29 29 29 29 29 29 29 30 30 30 30 30 30 30 30 31 31 31 31 33 33 34 34 34 34 34 34 33 34 34 34 34 34 34 34 35 36 37 37 38 38 39 40 41 41
31 31 32 32 32 32 32 33 32 32 32 32 32 32 32 31 30 30 30 29 29 28 28 29 29 29 30 30 29 29 29 30 30 30 30 30 30 30 30 30 30 30 32 33 34 34 34 34 34 34 34 33 32 32 32 33 33 33 33 33 34 35 35 36 36 37 38 39 41
30 30 31 31 31 32 32 32 32 31 32 32 31 31 31 30 30 29 29 28 28 28 28 29 30 30 30 30 30 30 30 30 30 30 30 29 29 29 30 30 30 31 32 33 34 34 34 34 34 34 34 34 33 32 32 33 33 33 33 34 34 34 34 35 35 36 37 38 39
29 29 30 30 30 31 31 31 31 31 31 31 31 30 30 29 29 29 28 28 28 28 29 30 30 30 29 29 29 29 30 30 30 30 29 29 29 29 29 30 30 31 32 33 33 34 34 34 34 34 34 34 33 32 33 33 33 33 33 33 33 33 34 34 35 35 36 37 37
28 29 29 29 30 30 30 30 31 31 30 30 30 29 29 28 28 28 28 28 28 28 29 29 29 29 28 29 29 29 29 29 29 29 29 28 28 28 29 29 29 30 31 33 33 33 33 34 34 34 34 34 33 32 32 32 32 32 32 32 33 33 33 34 34 34 35 36 36
28 28 28 29 29 29 29 30 30 30 29 29 29 28 28 28 28 28 28 28 28 28 28 28 28 28 28 29 29 29 29 29 29 29 28 28 28 28 29 29 29 30 31 32 33 33 33 33 34 34 33 33 33 32 32 32 32 32 32 32 33 33 33 33 34 34 34 35 35
26 27 28 28 28 28 29 29 29 28 28 28 28 28 28 27 27 27 28 28 28 28 28 28 28 28 28 28 28 28 28 28 28 28 28 28 28 28 28 29 29 30 31 32 33 33 33 33 33 33 33 33 32 32 32 31 32 32 32 32 32 32 33 33 33 33 34 34 35
26 26 27 28 28 28 28 27 27 26 26 26 27 27 27 27 27 27 27 27 28 28 28 28 28 28 28 28 28 28 28 27 28 28 28 28 28 28 28 28 29 30 32 32 32 33 33 33 33 33 33 33 32 31 31 31 31 31 31 32 32 32 33 33 33 34 34 34 35
26 26 27 26 27 27 26 26 26 25 25 25 26 26 26 26 26 26 27 28 28 29 29 29 29 29 28 28 28 28 27 27 27 27 27 28 28 28 28 28 28 30 31 32 32 32 33 33 33 33 33 32 31 31 31 31 31 31 31 31 31 32 33 33 33 34 34 34 34
26 25 25 25 25 26 25 25 25 25 25 24 24 24 25 25 26 27 28 28 28 28 28 28 28 28 28 28 27 27 27 27 27 27 27 27 27 27 27 27 28 29 31 32 32 32 32 33 33 33 33 32 31 31 30 30 30 30 30 31 31 31 32 33 33 33 34 34 34
26 25 24 24 25 25 25 25 25 24 24 24 24 24 25 25 26 27 28 28 28 27 27 27 27 27 27 27 27 27 27 28 27 27 27 27 27 27 27 27 28 29 30 31 32 32 32 32 33 33 32 31 30 30 30 30 30 30 30 30 30 31 31 32 32 33 33 34 34
26 25 24 24 25 25 25 25 24 24 23 24 24 25 25 26 26 27 28 28 27 27 26 26 26 26 26 27 27 27 27 28 27 27 27 27 27 27 27 27 27 28 29 31 32 32 32 32 33 32 32 31 30 30 30 30 30 30 30 30 30 31 31 32 32 32 33 33 33
25 25 25 25 25 25 25 24 24 23 23 24 25 25 26 26 27 27 28 28 27 27 26 26 26 26 26 27 27 27 27 27 27 27 27 27 27 27 28 27 28 28 29 31 32 32 32 33 33 33 32 31 30 30 30 29 29 29 29 30 30 30 31 32 32 32 33 33 34
25 25 25 24 24 24 24 24 24 24 24 24 25 25 26 26 27 28 28 28 28 27 27 26 26 26 27 27 27 27 26 27 27 27 27 27 28 28 29 28 28 28 29 31 32 32 33 33 33 33 32 31 31 30 30 30 29 29 29 29 30 30 30 31 32 32 32 32 34
25 25 24 24 24 24 24 23 24 24 24 25 25 26 26 27 27 28 28 27 27 27 27 27 27 27 27 27 27 26 26 26 27 27 28 28 28 28 29 28 28 28 29 31 32 32 33 33 33 33 33 32 31 30 30 30 29 29 29 29 30 30 30 31 31 32 32 32 33
MSLP
1017.64 1017.64 1017.64 1017.64 1017.64 1017.64 1017.56 1017.48 1017.40 1017.36 1017.28 1017.24 1017.20 1017.16 1017.08 1017.04 1016.96 1016.84 1016.72 1016.64 1016.60 1016.48 1016.32 1016.24 1016.20 1016.12 1016.04 1015.92 1015.92 1015.84 1015.76 1015.72 1015.68 1015.68 1015.64 1015.60 1015.48 1015.40 1015.28 1015.20 1015.20 1015.16 1015.08 1015.04 1015.04 1015.04 1015.04 1015.04 1015.04 1015.04 1015.00 1014.96 1014.92 1014.92 1014.80 1014.76 1014.72 1014.68 1014.64 1014.60 1014.48 1014.44 1014.36 1014.32 1014.24 1014.20 1014.16 1014.04 1013.96
1017.56 1017.56 1017.60 1017.64 1017.60 1017.56 1017.52 1017.44 1017.28 1017.20 1017.16 1017.08 1017.04 1017.00 1016.96 1016.92 1016.84 1016.76 1016.64 1016.52 1016.44 1016.32 1016.24 1016.20 1016.12 1016.08 1016.04 1015.96 1015.92 1015.88 1015.88 1015.80 1015.76 1015.72 1015.68 1015.64 1015.52 1015.40 1015.36 1015.24 1015.20 1015.08 1015.04 1015.00 1014.92 1014.92 1014.92 1014.92 1014.92 1014.88 1014.84 1014.76 1014.76 1014.72 1014.64 1014.52 1014.48 1014.48 1014.48 1014.40 1014.32 1014.24 1014.20 1014.20 1014.08 1014.04 1013.96 1013.92 1013.80
1017.56 1017.52 1017.56 1017.56 1017.56 1017.52 1017.48 1017.36 1017.20 1017.12 1017.04 1017.00 1016.92 1016.88 1016.80 1016.76 1016.72 1016.64 1016.48 1016.36 1016.28 1016.24 1016.20 1016.16 1016.04 1016.04 1015.96 1015.92 1015.84 1015.84 1015.84 1015.80 1015.76 1015.72 1015.64 1015.56 1015.48 1015.36 1015.28 1015.20 1015.12 1015.04 1015.00 1014.92 1014.88 1014.76 1014.76 1014.76 1014.76 1014.76 1014.68 1014.64 1014.60 1014.52 1014.44 1014.32 1014.32 1014.32 1014.32 1014.20 1014.08 1014.04 1014.00 1013.92 1013.84 1013.76 1013.76 1013.64 1013.64
1017.52 1017.52 1017.48 1017.48 1017.48 1017.44 1017.40 1017.28 1017.16 1017.08 1016.96 1016.88 1016.76 1016.76 1016.68 1016.64 1016.52 1016.44 1016.36 1016.32 1016.24 1016.20 1016.16 1016.08 1016.00 1015.92 1015.88 1015.84 1015.76 1015.72 1015.68 1015.64 1015.60 1015.56 1015.52 1015.44 1015.36 1015.24 1015.20 1015.16 1015.04 1015.00 1014.92 1014.84 1014.76 1014.68 1014.64 1014.64 1014.64 1014.60 1014.52 1014.48 1014.40 1014.32 1014.24 1014.16 1014.16 1014.12 1014.04 1013.96 1013.92 1013.84 1013.76 1013.68 1013.64 1013.56 1013.48 1013.48 1013.44
1017.48 1017.48 1017.48 1017.44 1017.36 1017.36 1017.28 1017.20 1017.12 1017.04 1016.88 1016.80 1016.72 1016.64 1016.52 1016.48 1016.40 1016.32 1016.28 1016.24 1016.20 1016.04 1016.00 1016.00 1015.96 1015.92 1015.80 1015.76 1015.68 1015.64 1015.56 1015.48 1015.48 1015.44 1015.40 1015.36 1015.24 1015.12 1015.04 1015.04 1014.96 1014.92 1014.76 1014.72 1014.64 1014.60 1014.48 1014.48 1014.48 1014.44 1014.36 1014.32 1014.24 1014.12 1014.00 1013.92 1013.92 1013.92 1013.84 1013.76 1013.64 1013.64 1013.56 1013.48 1013.40 1013.36 1013.28 1013.24 1013.16
1017.48 1017.44 1017.40 1017.36 1017.28 1017.20 1017.16 1017.04 1016.96 1016.88 1016.76 1016.64 1016.60 1016.52 1016.44 1016.32 1016.28 1016.24 1016.24 1016.20 1016.04 1015.96 1015.92 1015.92 1015.92 1015.84 1015.76 1015.68 1015.64 1015.60 1015.48 1015.36 1015.36 1015.32 1015.28 1015.20 1015.12 1015.04 1014.96 1014.92 1014.80 1014.72 1014.64 1014.56 1014.48 1014.44 1014.36 1014.36 1014.32 1014.20 1014.16 1014.04 1013.96 1013.88 1013.80 1013.76 1013.76 1013.76 1013.72 1013.60 1013.48 1013.40 1013.36 1013.28 1013.20 1013.12 1013.08 1013.04 1013.00
1017.48 1017.40 1017.36 1017.24 1017.20 1017.08 1017.00 1016.88 1016.76 1016.68 1016.64 1016.56 1016.52 1016.48 1016.36 1016.24 1016.20 1016.20 1016.16 1016.04 1015.92 1015.92 1015.88 1015.80 1015.76 1015.72 1015.68 1015.64 1015.56 1015.48 1015.40 1015.32 1015.24 1015.20 1015.16 1015.08 1015.00 1014.92 1014.88 1014.76 1014.64 1014.60 1014.48 1014.40 1014.36 1014.32 1014.24 1014.24 1014.16 1014.04 1013.92 1013.84 1013.72 1013.64 1013.60 1013.64 1013.64 1013.64 1013.56 1013.48 1013.32 1013.20 1013.16 1013.08 1012.96 1012.92 1012.92 1012.88 1012.84
1017.40 1017.36 1017.24 1017.12 1017.04 1016.96 1016.84 1016.72 1016.64 1016.56 1016.48 1016.44 1016.44 1016.36 1016.28 1016.20 1016.16 1016.08 1016.00 1015.92 1015.88 1015.76 1015.68 1015.64 1015.56 1015.52 1015.48 1015.48 1015.48 1015.40 1015.32 1015.20 1015.12 1015.04 1015.00 1014.96 1014.88 1014.76 1014.72 1014.64 1014.56 1014.48 1014.40 1014.28 1014.24 1014.16 1014.08 1014.04 1014.00 1013.88 1013.76 1013.64 1013.52 1013.36 1013.32 1013.36 1013.36 1013.36 1013.36 1013.24 1013.04 1012.92 1012.88 1012.84 1012.76 1012.72 1012.68 1012.64 1012.60
1017.32 1017.20 1017.08 1017.00 1016.88 1016.76 1016.68 1016.60 1016.56 1016.48 1016.48 1016.40 1016.32 1016.28 1016.20 1016.12 1016.04 1016.00 1015.92 1015.80 1015.68 1015.60 1015.48 1015.48 1015.36 1015.36 1015.32 1015.32 1015.28 1015.20 1015.12 1015.04 1014.96 1014.84 1014.76 1014.72 1014.68 1014.64 1014.52 1014.48 1014.40 1014.32 1014.20 1014.12 1014.08 1014.04 1013.92 1013.92 1013.76 1013.64 1013.52 1013.44 1013.28 1013.16 1013.04 1013.04 1013.08 1013.08 1013.04 1012.92 1012.84 1012.72 1012.64 1012.56 1012.52 1012.48 1012.48 1012.44 1012.40
1017.20 1017.08 1016.96 1016.84 1016.76 1016.64 1016.56 1016.52 1016.48 1016.48 1016.48 1016.36 1016.28 1016.20 1016.08 1016.04 1015.96 1015.88 1015.76 1015.68 1015.52 1015.48 1015.40 1015.36 1015.24 1015.20 1015.16 1015.12 1015.04 1014.96 1014.92 1014.80 1014.72 1014.64 1014.52 1014.48 1014.40 1014.32 1014.28 1014.20 1014.16 1014.04 1013.96 1013.92 1013.84 1013.80 1013.76 1013.68 1013.60 1013.44 1013.28 1013.20 1013.04 1012.92 1012.84 1012.80 1012.84 1012.80 1012.72 1012.64 1012.60 1012.48 1012.40 1012.32 1012.32 1012.28 1012.24 1012.20 1012.16
1017.08 1017.00 1016.92 1016.80 1016.72 1016.64 1016.56 1016.56 1016.48 1016.44 1016.36 1016.32 1016.20 1016.12 1016.04 1015.96 1015.84 1015.76 1015.64 1015.52 1015.48 1015.44 1015.28 1015.20 1015.16 1015.08 1015.04 1014.96 1014.88 1014.76 1014.68 1014.56 1014.44 1014.32 1014.24 1014.16 1014.08 1014.04 1013.96 1013.92 1013.84 1013.76 1013.64 1013.56 1013.52 1013.48 1013.48 1013.40 1013.32 1013.16 1013.04 1012.88 1012.80 1012.72 1012.64 1012.64 1012.64 1012.56 1012.48 1012.32 1012.28 1012.20 1012.16 1012.08 1012.04 1012.04 1012.00 1011.96 1011.92
1017.04 1016.92 1016.84 1016.76 1016.72 1016.64 1016.60 1016.60 1016.48 1016.44 1016.32 1016.24 1016.16 1016.04 1015.96 1015.84 1015.76 1015.64 1015.52 1015.48 1015.40 1015.28 1015.12 1015.04 1014.96 1014.92 1014.88 1014.76 1014.64 1014.52 1014.40 1014.32 1014.20 1014.08 1013.96 1013.88 1013.76 1013.72 1013.64 1013.56 1013.48 1013.40 1013.36 1013.24 1013.16 1013.12 1013.08 1013.04 1012.92 1012.84 1012.72 1012.60 1012.52 1012.44 1012.36 1012.32 1012.32 1012.28 1012.20 1012.04 1012.04 1011.96 1011.92 1011.80 1011.76 1011.72 1011.72 1011.68 1011.68
1017.00 1016.92 1016.88 1016.76 1016.72 1016.68 1016.64 1016.60 1016.48 1016.40 1016.32 1016.20 1016.04 1015.92 1015.80 1015.68 1015.56 1015.48 1015.36 1015.32 1015.20 1015.08 1014.92 1014.84 1014.76 1014.72 1014.64 1014.48 1014.40 1014.28 1014.16 1014.04 1013.92 1013.84 1013.72 1013.64 1013.52 1013.44 1013.36 1013.24 1013.12 1013.04 1012.96 1012.88 1012.80 1012.76 1012.72 1012.64 1012.56 1012.48 1012.40 1012.24 1012.20 1012.08 1012.04 1012.00 1012.00 1011.92 1011.88 1011.80 1011.76 1011.68 1011.60 1011.48 1011.48 1011.44 1011.40 1011.40 1011.40
1017.04 1016.96 1016.92 1016.80 1016.76 1016.72 1016.64 1016.56 1016.44 1016.32 1016.20 1016.04 1015.92 1015.76 1015.64 1015.48 1015.36 1015.28 1015.20 1015.16 1015.04 1014.92 1014.80 1014.68 1014.56 1014.48 1014.40 1014.28 1014.20 1014.08 1013.96 1013.84 1013.72 1013.60 1013.48 1013.36 1013.24 1013.16 1013.04 1012.92 1012.80 1012.72 1012.64 1012.48 1012.44 1012.36 1012.32 1012.24 1012.16 1012.08 1012.00 1011.92 1011.80 1011.72 1011.64 1011.64 1011.60 1011.56 1011.48 1011.44 1011.36 1011.28 1011.20 1011.16 1011.12 1011.12 1011.12 1011.12 1011.08
1017.04 1016.96 1016.88 1016.76 1016.76 1016.68 1016.60 1016.48 1016.32 1016.16 1016.04 1015.92 1015.76 1015.64 1015.48 1015.36 1015.20 1015.12 1015.04 1014.96 1014.92 1014.76 1014.64 1014.52 1014.40 1014.28 1014.16 1014.08 1014.00 1013.92 1013.76 1013.64 1013.52 1013.40 1013.24 1013.12 1013.00 1012.92 1012.80 1012.64 1012.52 1012.44 1012.32 1012.20 1012.08 1012.04 1011.96 1011.88 1011.76 1011.72 1011.64 1011.52 1011.44 1011.36 1011.28 1011.20 1011.20 1011.12 1011.04 1011.00 1010.92 1010.88 1010.76 1010.76 1010.76 1010.76 1010.76 1010.76 1010.80
1017.00 1016.92 1016.84 1016.76 1016.68 1016.60 1016.48 1016.40 1016.20 1016.04 1015.92 1015.80 1015.64 1015.52 1015.40 1015.24 1015.08 1015.04 1014.96 1014.84 1014.76 1014.64 1014.48 1014.40 1014.28 1014.12 1013.96 1013.88 1013.76 1013.68 1013.56 1013.44 1013.36 1013.20 1013.08 1012.92 1012.76 1012.64 1012.52 1012.40 1012.24 1012.12 1012.04 1011.92 1011.80 1011.72 1011.64 1011.48 1011.40 1011.36 1011.28 1011.16 1011.04 1010.96 1010.92 1010.80 1010.76 1010.68 1010.64 1010.56 1010.48 1010.44 1010.36 1010.32 1010.36 1010.36 1010.40 1010.40 1010.44
1017.00 1016.88 1016.76 1016.72 1016.64 1016.48 1016.40 1016.28 1016.08 1015.96 1015.84 1015.68 1015.56 1015.48 1015.36 1015.20 1015.04 1014.96 1014.88 1014.76 1014.64 1014.52 1014.40 1014.24 1014.16 1014.00 1013.84 1013.68 1013.60 1013.48 1013.40 1013.28 1013.16 1013.04 1012.88 1012.72 1012.56 1012.44 1012.28 1012.16 1012.00 1011.92 1011.80 1011.72 1011.60 1011.44 1011.32 1011.20 1011.04 1011.00 1010.92 1010.84 1010.72 1010.64 1010.56 1010.48 1010.36 1010.28 1010.20 1010.16 1010.04 1010.00 1009.96 1009.92 1009.92 1009.96 1010.00 1010.00 1010.00
1016.96 1016.84 1016.72 1016.64 1016.52 1016.40 1016.28 1016.20 1016.04 1015.88 1015.76 1015.64 1015.48 1015.36 1015.28 1015.16 1015.04 1014.92 1014.76 1014.64 1014.56 1014.48 1014.32 1014.16 1014.00 1013.88 1013.76 1013.56 1013.44 1013.36 1013.24 1013.08 1012.96 1012.80 1012.68 1012.52 1012.36 1012.24 1012.12 1011.92 1011.80 1011.68 1011.60 1011.48 1011.36 1011.20 1011.04 1010.88 1010.76 1010.68 1010.64 1010.52 1010.40 1010.32 1010.20 1010.12 1010.04 1009.92 1009.84 1009.76 1009.68 1009.64 1009.56 1009.48 1009.48 1009.48 1009.56 1009.56 1009.52
1016.92 1016.76 1016.64 1016.52 1016.44 1016.32 1016.20 1016.08 1015.96 1015.80 1015.68 1015.56 1015.44 1015.32 1015.20 1015.08 1014.96 1014.84 1014.68 1014.52 1014.44 1014.36 1014.24 1014.04 1013.88 1013.72 1013.60 1013.48 1013.32 1013.20 1013.04 1012.96 1012.80 1012.64 1012.48 1012.32 1012.20 1012.04 1011.92 1011.76 1011.64 1011.48 1011.40 1011.28 1011.12 1010.96 1010.80 1010.64 1010.52 1010.44 1010.32 1010.20 1010.12 1010.00 1009.88 1009.80 1009.72 1009.60 1009.48 1009.36 1009.32 1009.20 1009.16 1009.12 1009.08 1009.08 1009.04 1009.04 1009.04
1016.80 1016.68 1016.56 1016.44 1016.32 1016.20 1016.08 1015.96 1015.88 1015.76 1015.64 1015.48 1015.36 1015.24 1015.12 1015.00 1014.88 1014.76 1014.60 1014.40 1014.24 1014.16 1014.08 1013.92 1013.76 1013.56 1013.40 1013.24 1013.12 1013.00 1012.84 1012.76 1012.60 1012.44 1012.24 1012.08 1012.00 1011.84 1011.72 1011.56 1011.44 1011.32 1011.20 1011.04 1010.88 1010.72 1010.60 1010.44 1010.32 1010.20 1010.08 1009.96 1009.88 1009.76 1009.64 1009.48 1009.40 1009.28 1009.16 1009.04 1008.92 1008.84 1008.76 1008.72 1008.68 1008.64 1008.64 1008.64 1008.64
1016.72 1016.60 1016.48 1016.32 1016.20 1016.16 1016.04 1015.88 1015.76 1015.64 1015.52 1015.40 1015.32 1015.16 1015.00 1014.88 1014.72 1014.60 1014.48 1014.24 1014.08 1014.00 1013.92 1013.76 1013.64 1013.44 1013.24 1013.08 1012.92 1012.76 1012.60 1012.48 1012.32 1012.20 1012.04 1011.88 1011.76 1011.60 1011.48 1011.36 1011.20 1011.04 1010.92 1010.76 1010.64 1010.48 1010.32 1010.20 1010.08 1010.00 1009.88 1009.76 1009.64 1009.48 1009.36 1009.20 1009.08 1008.96 1008.84 1008.72 1008.60 1008.48 1008.36 1008.32 1008.28 1008.24 1008.20 1008.20 1008.20
1016.60 1016.48 1016.36 1016.24 1016.16 1016.04 1015.92 1015.76 1015.64 1015.56 1015.48 1015.32 1015.20 1015.04 1014.88 1014.72 1014.56 1014.40 1014.24 1014.08 1014.00 1013.88 1013.76 1013.60 1013.44 1013.28 1013.08 1012.92 1012.76 1012.60 1012.36 1012.20 1012.08 1011.92 1011.76 1011.64 1011.48 1011.32 1011.20 1011.08 1010.96 1010.80 1010.64 1010.48 1010.36 1010.24 1010.12 1010.00 1009.88 1009.76 1009.68 1009.56 1009.40 1009.24 1009.08 1008.96 1008.80 1008.64 1008.52 1008.40 1008.28 1008.16 1008.04 1007.96 1007.92 1007.84 1007.80 1007.80 1007.76
1016.48 1016.32 1016.24 1016.12 1016.04 1015.92 1015.80 1015.68 1015.56 1015.48 1015.36 1015.20 1015.04 1014.88 1014.72 1014.56 1014.40 1014.20 1014.04 1013.96 1013.84 1013.68 1013.52 1013.36 1013.20 1013.04 1012.92 1012.72 1012.60 1012.40 1012.20 1011.96 1011.80 1011.64 1011.48 1011.36 1011.20 1011.04 1010.92 1010.84 1010.76 1010.60 1010.40 1010.20 1010.08 1010.00 1009.88 1009.76 1009.64 1009.48 1009.40 1009.28 1009.08 1008.92 1008.76 1008.64 1008.48 1008.32 1008.20 1008.04 1007.92 1007.80 1007.68 1007.60 1007.52 1007.44 1007.36 1007.36 1007.32
1016.32 1016.24 1016.16 1016.04 1015.92 1015.80 1015.72 1015.60 1015.48 1015.36 1015.24 1015.04 1014.92 1014.76 1014.56 1014.40 1014.20 1014.04 1013.92 1013.76 1013.64 1013.48 1013.36 1013.20 1013.00 1012.84 1012.64 1012.48 1012.32 1012.20 1012.00 1011.76 1011.52 1011.28 1011.08 1010.96 1010.92 1010.76 1010.68 1010.60 1010.44 1010.24 1010.04 1009.92 1009.76 1009.72 1009.64 1009.52 1009.36 1009.20 1009.04 1008.92 1008.76 1008.56 1008.40 1008.24 1008.08 1007.92 1007.76 1007.64 1007.48 1007.36 1007.24 1007.16 1007.04 1006.96 1006.92 1006.88 1006.80
1016.28 1016.16 1016.04 1015.96 1015.88 1015.76 1015.64 1015.52 1015.40 1015.28 1015.08 1014.92 1014.76 1014.60 1014.40 1014.20 1014.04 1013.92 1013.72 1013.56 1013.36 1013.20 1013.04 1012.92 1012.72 1012.52 1012.36 1012.20 1012.04 1011.84 1011.68 1011.48 1011.24 1011.04 1010.76 1010.60 1010.48 1010.44 1010.32 1010.20 1010.04 1009.92 1009.76 1009.64 1009.48 1009.40 1009.36 1009.28 1009.12 1008.96 1008.80 1008.64 1008.44 1008.24 1008.04 1007.88 1007.68 1007.52 1007.36 1007.20 1007.04 1006.92 1006.76 1006.64 1006.56 1006.48 1006.44 1006.36 1006.32
1016.20 1016.08 1016.00 1015.92 1015.76 1015.64 1015.56 1015.44 1015.32 1015.16 1014.96 1014.76 1014.60 1014.40 1014.20 1014.04 1013.92 1013.76 1013.56 1013.36 1013.20 1013.00 1012.84 1012.68 1012.48 1012.32 1012.08 1011.92 1011.68 1011.48 1011.28 1011.16 1010.96 1010.76 1010.56 1010.32 1010.16 1010.04 1009.96 1009.92 1009.76 1009.60 1009.44 1009.32 1009.20 1009.08 1009.04 1008.96 1008.92 1008.80 1008.68 1008.48 1008.28 1008.04 1007.84 1007.60 1007.44 1007.28 1007.12 1006.92 1006.76 1006.64 1006.44 1006.24 1006.08 1006.00 1005.92 1005.88 1005.80
1016.12 1016.04 1015.92 1015.80 1015.68 1015.56 1015.44 1015.32 1015.16 1015.00 1014.84 1014.64 1014.48 1014.24 1014.04 1013.88 1013.72 1013.56 1013.36 1013.20 1012.96 1012.76 1012.60 1012.40 1012.20 1012.04 1011.80 1011.56 1011.36 1011.12 1010.96 1010.80 1010.64 1010.48 1010.28 1010.04 1009.92 1009.76 1009.64 1009.52 1009.40 1009.28 1009.16 1009.00 1008.92 1008.76 1008.68 1008.64 1008.52 1008.48 1008.44 1008.32 1008.12 1007.92 1007.64 1007.40 1007.20 1007.08 1006.92 1006.76 1006.56 1006.36 1006.16 1005.92 1005.80 1005.64 1005.52 1005.44 1005.36
1016.08 1016.00 1015.88 1015.76 1015.64 1015.48 1015.32 1015.16 1015.00 1014.84 1014.68 1014.52 1014.32 1014.08 1013.92 1013.76 1013.60 1013.40 1013.20 1012.96 1012.76 1012.60 1012.36 1012.16 1011.92 1011.76 1011.48 1011.24 1011.00 1010.80 1010.64 1010.48 1010.32 1010.16 1010.00 1009.80 1009.64 1009.48 1009.36 1009.20 1009.04 1008.92 1008.76 1008.64 1008.48 1008.36 1008.28 1008.20 1008.12 1008.04 1008.04 1007.96 1007.80 1007.64 1007.44 1007.20 1007.00 1006.80 1006.68 1006.52 1006.32 1006.16 1006.00 1005.76 1005.60 1005.44 1005.28 1005.20 1005.04
1016.04 1015.92 1015.80 1015.68 1015.52 1015.36 1015.16 1015.04 1014.88 1014.72 1014.52 1014.36 1014.16 1013.92 1013.76 1013.60 1013.40 1013.20 1013.00 1012.80 1012.60 1012.40 1012.20 1011.92 1011.64 1011.44 1011.20 1011.00 1010.76 1010.56 1010.40 1010.24 1010.04 1009.92 1009.76 1009.56 1009.36 1009.20 1009.04 1008.88 1008.68 1008.48 1008.32 1008.20 1008.08 1007.96 1007.84 1007.76 1007.64 1007.60 1007.52 1007.48 1007.40 1007.24 1007.04 1006.84 1006.64 1006.48 1006.32 1006.16 1005.96 1005.80 1005.68 1005.60 1005.40 1005.24 1005.12 1005.00 1004.84
1015.96 1015.88 1015.76 1015.60 1015.44 1015.24 1015.04 1014.88 1014.72 1014.52 1014.32 1014.16 1013.96 1013.76 1013.60 1013.36 1013.16 1012.96 1012.76 1012.60 1012.40 1012.20 1011.96 1011.72 1011.48 1011.20 1011.00 1010.76 1010.56 1010.32 1010.16 1009.96 1009.80 1009.64 1009.48 1009.28 1009.04 1008.84 1008.64 1008.48 1008.32 1008.12 1007.92 1007.76 1007.64 1007.52 1007.40 1007.28 1007.20 1007.12 1007.04 1007.00 1006.96 1006.80 1006.64 1006.44 1006.24 1006.08 1005.92 1005.76 1005.64 1005.52 1005.40 1005.24 1005.16 1005.04 1004.92 1004.76 1004.64
1015.92 1015.80 1015.68 1015.48 1015.32 1015.12 1014.92 1014.72 1014.56 1014.36 1014.20 1014.00 1013.84 1013.64 1013.48 1013.20 1013.00 1012.80 1012.64 1012.44 1012.20 1011.92 1011.72 1011.48 1011.28 1011.04 1010.76 1010.60 1010.40 1010.20 1009.92 1009.72 1009.52 1009.36 1009.20 1008.96 1008.72 1008.48 1008.28 1008.08 1007.92 1007.72 1007.52 1007.36 1007.20 1007.04 1006.92 1006.76 1006.68 1006.64 1006.56 1006.52 1006.48 1006.40 1006.20 1006.04 1005.84 1005.68 1005.52 1005.36 1005.24 1005.16 1005.08 1005.00 1004.88 1004.76 1004.64 1004.52 1004.40
1015.80 1015.72 1015.60 1015.40 1015.20 1014.92 1014.76 1014.56 1014.36 1014.20 1014.04 1013.88 1013.68 1013.48 1013.28 1013.04 1012.84 1012.64 1012.44 1012.24 1012.04 1011.76 1011.48 1011.24 1011.04 1010.76 1010.52 1010.32 1010.12 1009.92 1009.68 1009.48 1009.24 1009.04 1008.84 1008.64 1008.40 1008.16 1007.92 1007.68 1007.48 1007.28 1007.04 1006.88 1006.68 1006.52 1006.36 1006.28 1006.16 1006.08 1006.04 1006.00 1006.00 1005.92 1005.76 1005.60 1005.44 1005.24 1005.08 1004.96 1004.84 1004.76 1004.76 1004.64 1004.60 1004.48 1004.36 1004.28 1004.20
1015.76 1015.64 1015.48 1015.28 1015.04 1014.80 1014.60 1014.40 1014.20 1014.04 1013.92 1013.72 1013.48 1013.32 1013.08 1012.88 1012.64 1012.40 1012.20 1012.04 1011.84 1011.60 1011.28 1011.04 1010.76 1010.56 1010.32 1010.08 1009.84 1009.64 1009.40 1009.20 1008.96 1008.76 1008.48 1008.32 1008.04 1007.80 1007.52 1007.24 1007.04 1006.76 1006.56 1006.32 1006.20 1006.00 1005.84 1005.72 1005.64 1005.52 1005.48 1005.48 1005.44 1005.36 1005.20 1005.04 1004.92 1004.76 1004.64 1004.48 1004.44 1004.40 1004.36 1004.32 1004.28 1004.20 1004.08 1004.04 1003.96
1015.64 1015.48 1015.32 1015.12 1014.92 1014.68 1014.44 1014.28 1014.08 1013.92 1013.76 1013.52 1013.32 1013.08 1012.92 1012.76 1012.48 1012.20 1011.96 1011.76 1011.60 1011.36 1011.04 1010.84 1010.64 1010.36 1010.16 1009.92 1009.68 1009.40 1009.12 1008.88 1008.64 1008.40 1008.16 1007.92 1007.68 1007.44 1007.16 1006.84 1006.52 1006.28 1006.04 1005.88 1005.64 1005.48 1005.36 1005.20 1005.08 1005.00 1004.92 1004.92 1004.92 1004.76 1004.64 1004.52 1004.40 1004.20 1004.08 1003.96 1003.92 1003.92 1003.92 1003.88 1003.84 1003.80 1003.76 1003.72 1003.68
1015.52 1015.40 1015.20 1015.00 1014.76 1014.56 1014.32 1014.16 1013.92 1013.76 1013.60 1013.36 1013.12 1012.88 1012.68 1012.56 1012.32 1012.04 1011.76 1011.52 1011.32 1011.04 1010.80 1010.64 1010.40 1010.20 1009.92 1009.68 1009.44 1009.20 1008.92 1008.64 1008.32 1008.04 1007.76 1007.56 1007.32 1007.04 1006.72 1006.36 1006.04 1005.76 1005.52 1005.36 1005.16 1004.92 1004.76 1004.64 1004.52 1004.44 1004.36 1004.32 1004.32 1004.20 1004.04 1003.92 1003.80 1003.64 1003.52 1003.48 1003.40 1003.36 1003.36 1003.36 1003.36 1003.36 1003.36 1003.36 1003.36
1015.48 1015.36 1015.20 1014.92 1014.68 1014.44 1014.20 1014.04 1013.84 1013.64 1013.44 1013.20 1013.00 1012.76 1012.48 1012.28 1012.04 1011.84 1011.64 1011.36 1011.12 1010.88 1010.64 1010.32 1010.12 1009.92 1009.64 1009.36 1009.12 1008.92 1008.64 1008.36 1008.04 1007.72 1007.44 1007.20 1006.92 1006.64 1006.24 1005.84 1005.48 1005.20 1004.96 1004.76 1004.60 1004.40 1004.20 1004.04 1003.96 1003.88 1003.80 1003.80 1003.72 1003.64 1003.48 1003.36 1003.20 1003.08 1003.00 1002.92 1002.84 1002.76 1002.76 1002.84 1002.84 1002.84 1002.84 1002.88 1002.92
1015.44 1015.32 1015.12 1014.88 1014.60 1014.32 1014.16 1013.92 1013.76 1013.52 1013.28 1013.04 1012.84 1012.64 1012.36 1012.08 1011.80 1011.60 1011.40 1011.20 1010.96 1010.68 1010.36 1010.12 1009.88 1009.64 1009.36 1009.12 1008.84 1008.56 1008.28 1008.04 1007.76 1007.40 1007.04 1006.76 1006.52 1006.20 1005.84 1005.40 1005.04 1004.64 1004.40 1004.20 1004.04 1003.84 1003.68 1003.48 1003.36 1003.32 1003.28 1003.24 1003.16 1003.04 1002.92 1002.80 1002.64 1002.48 1002.40 1002.32 1002.24 1002.20 1002.20 1002.28 1002.32 1002.32 1002.32 1002.32 1002.36
1015.32 1015.20 1015.04 1014.84 1014.56 1014.32 1014.08 1013.88 1013.64 1013.44 1013.20 1012.92 1012.68 1012.48 1012.20 1011.96 1011.68 1011.44 1011.20 1011.04 1010.84 1010.52 1010.20 1009.88 1009.64 1009.36 1009.12 1008.88 1008.56 1008.24 1007.92 1007.64 1007.40 1007.12 1006.76 1006.40 1006.12 1005.76 1005.44 1005.04 1004.60 1004.20 1003.88 1003.64 1003.48 1003.28 1003.04 1002.92 1002.76 1002.68 1002.64 1002.64 1002.56 1002.48 1002.36 1002.20 1002.04 1001.92 1001.84 1001.76 1001.72 1001.64 1001.68 1001.76 1001.76 1001.76 1001.72 1001.68 1001.76
1015.20 1015.08 1014.96 1014.76 1014.52 1014.28 1014.04 1013.80 1013.60 1013.36 1013.12 1012.88 1012.56 1012.28 1012.04 1011.76 1011.56 1011.32 1011.08 1010.92 1010.68 1010.40 1010.04 1009.76 1009.40 1009.08 1008.84 1008.60 1008.32 1007.92 1007.56 1007.24 1007.00 1006.76 1006.44 1006.04 1005.68 1005.36 1005.04 1004.68 1004.20 1003.72 1003.36 1003.08 1002.88 1002.64 1002.48 1002.28 1002.12 1002.04 1002.04 1002.04 1002.00 1001.92 1001.76 1001.64 1001.48 1001.36 1001.28 1001.20 1001.16 1001.12 1001.12 1001.16 1001.20 1001.16 1001.08 1001.08 1001.16
1015.16 1015.04 1014.92 1014.72 1014.48 1014.24 1014.00 1013.76 1013.52 1013.28 1013.04 1012.76 1012.48 1012.16 1011.88 1011.64 1011.40 1011.16 1010.92 1010.72 1010.48 1010.20 1009.92 1009.52 1009.16 1008.84 1008.56 1008.32 1008.04 1007.68 1007.28 1006.88 1006.56 1006.32 1006.04 1005.68 1005.28 1004.92 1004.60 1004.28 1003.80 1003.32 1002.92 1002.60 1002.32 1002.08 1001.88 1001.64 1001.48 1001.36 1001.36 1001.44 1001.40 1001.36 1001.20 1001.08 1000.96 1000.84 1000.76 1000.68 1000.64 1000.64 1000.60 1000.56 1000.60 1000.60 1000.56 1000.52 1000.56
1015.12 1014.96 1014.80 1014.64 1014.44 1014.20 1013.96 1013.68 1013.40 1013.16 1012.88 1012.64 1012.36 1012.04 1011.76 1011.52 1011.20 1011.00 1010.76 1010.48 1010.24 1009.96 1009.68 1009.32 1008.92 1008.60 1008.32 1008.04 1007.80 1007.48 1007.04 1006.60 1006.20 1005.84 1005.56 1005.28 1004.92 1004.48 1004.16 1003.80 1003.36 1002.92 1002.44 1002.08 1001.80 1001.56 1001.32 1001.08 1000.92 1000.76 1000.72 1000.76 1000.76 1000.76 1000.68 1000.60 1000.48 1000.32 1000.20 1000.08 1000.08 1000.08 1000.04 1000.00 1000.04 1000.04 1000.00 1000.04 1000.04
Wind_Speed
3 3 3 3 3 3 3 3 3 3 3 3 3 3 3 3 4 4 4 4 4 4 4 4 3 3 3 3 4 4 5 5 4 4 4 5 5 5 5 5 5 5 5 5 5 5 5 5 4 4 4 4 4 4 4 4 4 4 4 4 4 4 3 4 4 4 4 4 4
4 3 3 3 3 3 3 3 3 3 3 3 3 3 3 3 4 4 4 4 4 3 3 3 3 3 3 4 4 4 4 5 5 5 5 5 6 6 6 5 5 5 5 5 5 5 4 5 4 4 4 4 4 4 5 4 5 5 5 6 4 4 3 4 4 4 4 4 4
3 3 2 2 2 2 2 3 3 3 3 3 3 3 3 3 3 3 4 4 3 3 3 3 3 3 3 4 4 4 4 5 5 5 6 6 7 7 6 6 6 6 6 6 6 5 5 5 4 4 4 4 5 5 5 5 5 5 5 6 4 4 4 4 4 4 4 3 4
3 3 3 3 3 3 3 3 3 4 4 3 3 2 2 2 3 3 3 3 3 3 3 3 3 3 4 4 5 5 5 5 6 6 6 7 7 8 8 7 7 7 7 7 7 6 6 6 4 4 4 5 6 6 6 5 5 5 5 5 4 4 5 5 4 4 4 4 4
3 3 3 3 3 4 3 3 3 4 4 3 2 2 2 2 2 2 2 2 3 4 4 4 4 4 4 4 5 6 6 6 6 6 7 7 8 8 8 7 8 8 8 7 7 7 7 6 4 4 5 5 5 5 6 7 6 5 5 4 4 5 5 5 4 4 4 4 4
4 4 3 3 4 4 3 3 3 3 3 2 2 3 3 3 3 3 3 3 4 4 4 4 4 4 5 5 6 6 6 6 6 6 7 8 8 8 8 9 9 8 8 8 8 8 7 6 5 4 5 5 6 6 7 7 7 6 6 5 5 5 5 5 5 4 5 5 5
3 4 4 4 4 3 3 3 3 3 2 2 2 4 5 5 4 5 5 5 5 4 4 3 4 4 5 5 6 6 6 6 6 6 7 7 8 8 8 9 9 9 9 9 9 8 8 6 5 5 5 5 5 6 7 7 7 7 7 7 6 6 5 6 5 5 5 7 7
4 4 4 4 4 3 3 3 2 2 2 2 3 4 5 6 6 6 6 5 5 4 4 3 4 5 6 6 6 6 7 7 7 7 7 7 8 8 9 9 9 9 9 9 9 9 8 7 6 5 5 5 5 6 7 8 8 8 9 9 8 6 6 6 5 6 7 8 9
4 4 4 4 3 3 3 3 2 2 3 3 4 5 6 6 6 6 5 5 5 5 4 4 5 6 7 7 7 7 7 7 7 7 7 7 8 8 8 8 8 9 9 9 9 9 9 7 6 6 6 6 6 7 8 9 9 10 10 10 8 7 7 7 6 7 7 8 9
4 4 3 3 3 3 3 3 2 2 3 4 5 5 6 6 5 5 5 5 5 5 5 5 6 6 7 7 7 7 7 7 7 7 7 8 8 8 8 8 8 9 9 9 8 9 9 7 7 8 7 7 8 9 10 10 10 11 11 8 8 9 9 8 8 8 8 8 9
4 4 3 3 4 3 3 3 3 3 3 4 5 5 5 5 5 5 5 4 5 5 5 5 6 6 7 7 7 7 7 7 7 7 8 8 8 8 8 9 9 9 9 9 8 8 7 7 8 9 10 9 10 10 11 11 11 12 12 10 10 10 11 10 9 9 9 9 10
4 4 3 3 3 3 3 3 3 3 4 4 5 5 5 5 5 5 5 5 5 6 6 6 6 7 7 7 7 8 8 8 8 8 8 9 9 9 10 10 10 10 10 10 8 7 7 8 9 10 11 12 10 10 10 12 12 13 13 13 12 12 12 12 11 10 9 9 10
3 3 3 3 3 3 3 3 3 4 4 5 5 5 5 6 6 6 6 6 7 7 7 7 7 8 8 8 8 9 9 9 9 10 10 10 10 11 11 11 11 11 11 11 9 9 8 9 10 11 12 13 11 11 11 12 13 13 14 14 14 13 13 13 12 11 10 10 10
3 3 3 3 3 3 3 4 4 5 5 6 6 6 6 7 7 7 7 8 8 9 9 8 8 8 9 9 10 10 10 10 11 11 11 12 12 12 12 12 12 12 12 11 10 10 10 11 11 12 12 13 13 13 13 13 13 13 14 14 14 15 14 14 13 12 11 11 11
3 3 3 3 3 3 4 5 5 5 6 7 7 7 7 7 8 8 8 9 9 9 9 9 9 9 10 10 11 11 11 11 12 12 13 13 13 13 13 13 13 13 12 12 11 11 11 12 12 12 13 13 14 14 13 13 14 14 14 14 15 15 15 15 14 13 12 13 12
3 3 4 4 4 5 5 6 6 6 7 7 8 8 8 8 8 9 9 10 10 10 10 10 10 10 10 11 11 12 12 12 12 13 13 14 14 14 14 14 14 14 13 13 13 12 12 12 12 12 13 13 14 14 14 14 14 14 15 15 15 15 15 15 15 14 14 14 13
4 4 4 4 5 6 6 7 7 7 7 8 9 9 9 9 9 9 10 10 10 10 11 12 11 11 11 12 11 11 11 12 12 13 13 14 15 15 15 15 15 15 14 14 14 14 14 14 13 13 13 13 13 14 14 14 14 14 15 15 16 16 16 16 15 15 15 14 14
4 5 5 5 6 7 8 8 8 8 9 9 10 9 9 9 9 10 10 10 11 11 12 13 12 12 12 13 12 11 11 12 13 13 14 14 15 15 15 16 15 15 15 15 15 15 16 16 15 14 13 13 13 13 14 14 14 14 15 15 15 16 16 16 16 15 15 15 15
5 6 6 7 7 8 8 9 9 10 10 10 10 10 10 10 10 11 11 11 11 12 12 13 13 13 13 13 13 12 12 12 13 14 15 15 15 15 15 16 16 16 16 16 16 16 17 17 16 16 15 15 14 14 14 14 14 14 14 15 15 15 16 16 16 16 15 16 16
6 7 7 7 8 8 9 9 10 10 10 10 10 11 11 11 11 11 12 12 12 12 12 13 13 14 14 14 14 14 13 12 13 14 15 15 15 15 15 16 16 16 16 16 17 17 17 17 17 17 17 16 16 16 16 15 15 15 14 14 14 15 15 16 16 16 16 16 16
6 7 7 8 8 9 9 10 10 10 10 10 11 11 11 11 11 12 12 12 12 12 13 13 14 14 15 15 15 15 14 13 13 14 15 15 15 16 16 16 16 16 16 16 17 17 18 18 17 17 17 17 17 17 16 16 16 16 15 14 14 15 15 16 16 16 16 17 17
6 7 7 8 9 9 9 10 10 10 10 11 11 12 12 12 12 12 12 12 12 13 13 13 14 14 15 15 15 15 15 14 14 14 15 15 15 16 16 15 16 16 16 16 17 17 17 18 17 17 17 17 17 18 18 17 17 17 17 16 16 16 16 16 16 16 17 17 17
7 7 7 8 9 9 10 10 10 10 11 11 12 12 12 13 13 13 13 12 12 13 13 13 13 13 14 14 14 15 15 15 15 15 15 15 15 15 15 15 15 15 16 16 16 16 16 16 16 16 16 17 17 18 18 18 18 18 18 18 18 18 18 17 17 17 17 18 18
8 8 8 8 9 9 10 10 11 11 12 12 13 13 13 13 13 13 13 13 13 13 13 12 12 13 14 14 14 14 15 15 16 16 16 16 15 15 15 14 14 15 15 14 14 14 14 13 13 14 15 15 16 16 17 17 18 18 18 19 19 19 19 19 19 19 19 19 18
8 8 8 9 9 10 10 10 11 12 12 13 13 13 14 14 13 13 13 14 14 14 14 14 14 13 13 13 14 14 14 15 16 16 16 16 15 15 14 13 14 13 13 12 16 19 20 18 15 14 13 14 14 15 15 16 16 17 17 18 19 19 19 19 20 20 20 20 19
8 8 9 9 10 10 11 11 12 12 13 13 14 14 14 14 14 13 14 14 14 14 14 14 14 13 13 13 14 14 14 13 14 15 16 16 16 15 15 13 13 12 12 14 18 22 23 24 22 19 16 14 15 15 15 15 15 15 16 17 17 17 18 18 19 19 20 19 19
8 8 9 9 10 11 11 12 12 13 13 14 14 15 15 14 14 14 14 15 15 15 14 14 13 13 13 13 13 14 14 13 14 15 16 16 17 17 16 15 13 12 12 16 21 23 24 25 25 24 21 16 15 15 15 15 15 15 16 16 17 17 18 18 18 18 18 19 19
7 8 9 10 10 11 12 12 13 13 14 14 15 15 15 15 15 15 15 15 15 14 14 13 12 11 11 11 12 14 15 15 15 15 16 16 17 17 17 15 13 13 16 20 23 25 26 26 26 26 24 20 16 15 15 16 16 16 15 15 16 17 17 17 16 16 16 17 18
7 8 9 10 11 12 13 13 13 14 14 14 15 15 15 15 15 15 15 15 15 14 13 12 11 10 11 12 14 15 16 17 16 16 16 17 17 17 17 17 16 17 20 24 26 27 27 27 27 27 26 24 17 14 13 14 14 14 14 14 14 15 15 15 15 14 15 15 15
7 8 9 10 12 13 13 13 14 14 14 14 14 15 15 15 16 16 15 15 15 14 13 12 12 13 14 15 15 16 16 16 16 16 16 17 18 18 18 18 17 18 20 25 27 28 28 28 28 28 27 26 21 17 14 13 13 13 13 13 13 14 15 16 16 16 15 14 14
7 8 9 11 12 13 14 14 14 14 14 14 14 15 15 15 16 15 15 14 14 14 15 15 15 16 16 16 16 16 17 17 17 16 17 17 18 19 19 19 19 20 21 25 28 29 29 29 29 29 28 28 23 18 14 14 14 14 13 13 14 15 15 15 16 16 16 16 15
8 8 10 11 12 13 14 14 14 14 14 15 15 15 15 15 15 15 14 14 14 15 16 16 16 17 17 17 17 17 18 18 17 17 17 18 19 20 20 20 20 21 22 26 28 29 30 29 29 29 29 28 24 20 17 16 16 15 15 16 17 18 17 15 15 16 17 17 16
8 9 10 12 13 14 14 14 14 14 14 15 15 15 15 15 15 15 14 14 14 15 16 16 17 17 18 18 18 19 19 18 18 19 19 19 20 20 21 20 19 20 23 26 28 29 29 29 29 29 29 28 24 20 17 17 16 15 15 16 17 18 18 18 17 17 17 17 16
8 10 11 12 13 14 14 14 14 14 14 15 15 15 15 15 15 15 15 14 14 14 15 16 16 17 17 17 18 18 18 18 18 19 20 20 21 21 21 20 17 19 23 27 29 30 30 30 30 30 29 29 23 19 17 18 16 16 16 17 18 18 18 19 19 19 19 19 17
9 11 12 13 13 14 14 14 14 14 14 14 15 15 15 15 15 15 15 15 15 15 15 16 16 16 16 17 17 18 19 19 19 20 20 20 21 21 22 22 20 22 26 29 31 31 31 31 31 31 30 27 20 17 16 17 17 17 18 18 19 19 20 20 19 19 19 20 19
10 11 12 13 14 14 14 14 14 14 14 15 15 15 15 15 15 14 14 15 15 16 16 17 17 17 17 18 17 18 18 19 20 20 20 20 21 22 23 23 23 25 27 30 31 31 31 31 31 31 29 24 18 15 14 15 15 16 18 19 19 20 20 20 20 19 19 19 19
10 10 11 13 14 14 14 14 14 14 15 15 15 15 15 15 15 15 14 15 15 16 17 17 17 18 18 18 18 18 19 19 20 21 21 21 21 22 22 23 23 25 26 29 30 31 31 31 31 30 27 21 16 14 14 13 13 14 16 18 19 19 19 18 18 19 19 19 20
10 11 11 12 13 14 14 14 14 14 15 15 15 15 15 15 15 14 14 14 15 16 17 18 18 18 18 19 19 19 20 20 20 21 21 21 21 22 22 23 23 24 25 27 29 30 31 31 31 29 26 19 16 14 13 12 13 13 14 15 16 17 17 16 15 16 18 20 22
11 11 11 12 13 13 14 14 14 14 14 15 15 15 15 14 14 14 14 14 15 16 17 18 18 19 19 19 19 19 20 20 21 21 21 21 21 22 23 23 23 23 24 26 29 30 31 31 30 30 27 21 16 14 12 12 13 14 14 14 14 15 15 15 14 14 16 19 24
11 11 11 12 12 13 13 14 14 14 14 14 15 15 15 15 15 15 15 14 15 16 16 17 19 19 19 19 18 19 20 21 21 21 20 21 22 23 24 24 23 23 25 27 29 30 31 30 30 29 26 20 15 13 11 11 12 13 14 13 13 13 13 14 13 13 14 16 21
10 11 11 12 12 12 13 14 14 14 14 14 15 15 14 15 15 15 15 14 15 16 16 16 18 19 20 19 18 18 19 21 21 21 21 21 22 23 23 22 22 23 23 25 27 29 29 30 29 29 26 19 14 12 11 10 12 13 14 14 13 12 12 12 12 13 13 14 16
Wind_Direction
276 266 255 247 248 253 258 262 259 256 254 256 262 264 265 265 267 268 268 267 267 271 274 276 275 279 281 280 267 259 257 260 261 260 258 255 254 252 249 246 238 233 231 232 231 230 227 223 223 225 228 224 225 228 228 224 224 226 230 233 237 239 240 241 240 237 234 235 237
285 274 259 249 247 250 258 265 264 259 253 249 251 255 258 260 266 271 274 272 270 272 276 281 279 279 280 279 274 270 268 269 269 269 268 264 262 260 259 257 252 246 241 239 236 235 232 226 224 228 233 232 231 233 235 231 226 229 236 239 240 240 240 241 237 233 230 231 231
288 284 274 262 257 260 265 273 275 273 269 263 256 254 255 257 262 268 273 274 275 276 277 276 273 271 272 275 275 269 262 259 262 264 265 265 265 264 263 261 260 257 253 247 242 240 237 230 228 231 235 238 235 237 240 239 230 230 235 239 241 242 243 243 239 234 232 232 229
291 287 284 280 275 272 271 276 282 282 280 277 271 263 258 257 260 264 269 275 277 273 268 265 268 267 267 267 268 263 256 249 249 253 258 262 264 264 263 263 264 263 261 256 251 247 243 235 233 235 239 241 240 240 241 241 235 233 235 237 241 243 245 246 243 240 237 237 231
299 289 279 276 274 269 265 263 270 275 278 280 286 287 284 277 271 273 277 284 277 272 268 265 267 267 264 261 261 260 259 255 250 250 254 258 261 262 262 262 261 262 262 261 257 253 248 240 239 239 240 240 241 242 243 242 241 241 243 245 243 243 243 245 243 241 240 240 237
297 291 283 272 268 265 261 254 256 261 268 277 295 302 302 300 299 297 292 286 281 278 275 271 267 264 263 260 258 259 260 261 257 254 254 256 259 261 261 261 259 259 260 261 259 257 252 244 245 244 242 240 243 245 245 243 245 247 250 253 250 248 246 245 244 243 243 243 243
277 279 278 272 267 265 264 262 259 261 267 281 297 299 299 298 298 294 289 284 286 285 282 274 269 267 265 263 261 261 261 262 261 257 254 256 258 259 259 260 259 259 259 259 259 258 255 245 248 249 246 242 247 246 244 242 243 246 250 253 252 250 247 247 246 245 244 244 242
262 262 263 265 264 265 269 273 280 289 295 298 295 291 290 290 290 288 288 289 288 285 282 281 278 275 272 270 267 265 263 263 264 260 256 255 256 258 258 258 259 260 259 258 258 257 255 250 249 249 249 247 248 246 243 238 239 242 246 249 252 250 246 245 244 244 244 243 241
271 268 267 269 271 275 280 286 291 296 298 294 287 284 283 283 284 285 287 288 285 283 283 285 283 281 279 275 271 268 265 263 263 261 259 256 255 256 257 257 257 257 257 255 254 253 253 253 252 251 249 247 249 248 244 238 239 241 244 247 250 250 248 245 241 240 240 240 240
283 283 287 292 295 298 301 305 298 291 287 286 284 282 282 281 281 281 280 278 283 286 287 285 285 285 283 281 277 274 270 267 265 264 263 260 257 256 255 255 253 253 253 251 249 247 247 249 251 251 250 248 249 249 248 243 242 242 243 246 247 248 248 246 241 238 237 238 238
281 286 293 298 303 308 314 314 305 295 287 285 286 286 286 285 283 280 278 280 287 287 285 282 284 285 285 283 281 279 277 275 275 274 272 270 266 262 259 256 254 253 252 250 246 244 243 243 246 248 248 248 247 248 249 246 244 244 244 247 246 247 247 246 241 238 237 237 237
283 289 294 297 302 308 313 311 303 298 294 291 291 291 291 289 286 285 286 291 292 289 287 286 287 287 287 286 285 285 284 282 282 281 280 279 276 272 268 265 262 259 257 255 250 247 244 243 243 244 245 246 245 246 245 244 243 244 245 246 245 245 246 246 242 239 237 235 236
288 294 299 302 304 307 308 305 301 300 300 299 298 298 298 297 296 297 298 300 298 297 296 295 292 290 289 288 288 288 288 287 286 285 284 282 280 278 276 273 270 267 265 262 258 254 251 248 244 244 244 244 244 242 241 240 240 241 242 244 244 244 244 244 241 239 237 234 235
294 297 298 300 304 307 308 309 306 307 307 307 306 306 306 306 306 306 306 305 303 301 300 299 296 293 290 289 289 288 288 287 287 286 284 283 281 279 277 276 273 272 270 268 264 260 257 255 251 248 246 245 244 243 240 238 238 238 239 241 241 242 242 242 240 238 236 234 235
299 298 298 303 307 311 312 313 313 313 314 312 311 311 311 310 310 309 308 306 303 301 300 299 296 294 292 290 289 289 288 288 287 286 284 283 281 279 278 277 275 274 273 272 269 266 262 260 257 255 252 250 248 246 243 240 239 238 238 238 239 240 240 240 238 236 234 233 234
306 307 308 312 314 315 315 315 315 316 315 312 312 311 311 309 309 309 308 305 303 301 300 298 296 295 294 291 290 289 289 288 287 285 284 283 282 281 280 279 278 278 277 276 274 272 268 265 263 260 258 256 254 252 249 245 242 240 239 238 238 238 238 238 236 235 233 231 232
313 313 313 316 316 317 316 315 315 315 313 311 311 310 309 309 309 308 306 304 303 302 300 297 296 295 294 292 291 290 289 288 287 285 284 283 283 282 282 281 281 280 279 279 277 276 274 271 269 266 263 261 259 257 254 251 247 244 241 240 239 238 238 237 235 234 233 231 231
314 314 314 317 317 316 315 314 313 312 311 310 310 309 308 308 307 306 304 302 301 299 298 296 295 294 293 292 291 290 289 288 287 285 284 284 283 283 283 282 281 281 280 280 278 277 276 274 273 271 268 266 264 261 259 256 253 249 246 243 240 239 238 237 235 234 233 232 232
313 314 315 317 316 315 314 313 312 311 310 309 309 308 307 306 305 303 301 299 298 297 296 295 294 293 292 291 291 290 289 287 286 285 284 283 283 283 282 282 281 281 280 280 278 277 276 275 274 273 271 269 267 265 263 260 257 254 250 247 244 241 239 238 236 234 233 232 232
313 314 315 315 314 313 312 311 310 310 310 309 308 307 305 303 302 300 298 297 296 296 295 294 294 293 292 292 291 290 288 286 286 285 284 283 282 282 281 281 281 281 280 279 277 276 276 275 274 273 272 271 269 267 265 263 260 257 254 251 247 244 241 239 237 235 234 233 233
313 313 313 312 312 310 309 309 309 309 308 307 305 304 302 301 300 298 296 295 296 296 295 293 292 292 292 291 291 289 288 286 285 284 284 283 282 281 281 281 281 280 279 278 277 276 275 275 274 274 273 272 270 269 267 265 263 260 257 254 251 248 244 241 239 237 235 234 233
311 311 311 310 309 308 308 308 308 307 306 305 303 302 301 300 298 297 295 295 296 295 293 292 291 290 290 289 289 288 288 287 285 284 283 282 282 281 281 280 280 279 278 277 276 275 275 274 273 273 272 271 269 268 266 265 263 261 259 256 254 251 248 245 242 239 237 236 234
308 308 308 308 308 308 308 308 307 306 305 303 302 302 301 300 298 297 297 296 295 294 292 291 290 288 288 287 287 287 286 286 285 283 281 280 280 280 280 279 278 277 276 275 274 274 273 273 272 270 269 268 267 265 264 262 261 259 258 256 254 251 249 246 244 242 240 238 236
306 307 307 308 309 309 308 308 307 306 305 304 303 302 301 300 299 298 298 296 294 293 292 291 289 288 287 287 285 285 284 284 283 283 282 280 279 278 278 278 276 274 273 273 272 271 271 271 271 270 268 267 265 264 262 260 259 257 256 255 253 251 249 246 244 242 241 239 238
305 306 307 308 308 308 307 307 306 305 304 303 303 302 301 300 299 299 298 296 295 294 292 291 290 289 288 287 285 283 282 281 281 282 282 282 280 279 278 277 276 275 274 273 272 272 272 271 271 271 271 270 269 267 265 263 261 259 257 256 254 253 250 248 245 242 240 239 237
306 307 307 307 307 307 306 305 304 304 303 303 302 302 301 300 299 299 298 297 296 295 294 294 292 291 289 287 285 283 281 280 280 281 282 283 283 281 280 278 277 276 274 273 273 273 273 272 271 271 271 272 272 271 270 267 265 263 262 260 258 256 254 251 247 244 241 239 238
307 307 307 306 307 306 305 304 304 303 303 303 302 301 301 301 300 300 299 297 297 296 296 294 292 290 288 285 284 283 283 282 283 283 283 284 284 283 282 280 278 275 273 273 273 273 272 271 270 269 268 268 268 268 268 268 266 265 265 264 262 260 258 256 253 249 246 243 240
305 305 305 307 306 305 304 304 304 304 303 303 302 301 301 301 300 299 299 298 298 298 297 295 291 289 288 286 286 286 287 288 288 287 287 286 284 283 282 281 278 275 273 274 274 273 273 272 270 269 267 265 264 263 263 264 264 263 261 260 259 259 258 258 256 254 251 248 245
302 304 305 307 305 305 305 305 305 304 303 302 302 302 301 301 300 300 300 300 300 299 298 296 294 293 291 290 291 291 292 291 290 289 288 286 284 283 281 280 278 276 275 275 275 275 274 273 271 269 267 265 262 260 259 259 259 258 257 256 254 254 254 254 254 254 253 251 247
302 304 305 305 304 304 304 304 304 303 303 303 303 303 302 302 301 301 301 301 300 298 297 297 297 295 294 293 294 293 293 291 290 289 287 286 284 283 281 280 278 277 276 276 276 275 274 273 272 270 268 266 263 261 258 257 256 255 254 254 252 252 251 251 251 252 252 251 248
303 304 304 304 303 303 303 304 304 304 304 304 304 303 303 302 302 301 301 301 300 299 298 298 296 295 293 293 293 292 292 291 290 289 287 285 284 283 281 280 278 276 276 275 275 274 273 272 271 269 268 266 263 260 257 256 254 253 252 251 251 250 250 250 250 250 249 249 248
303 304 304 304 303 303 303 304 305 305 305 305 304 303 302 302 301 301 301 301 300 300 300 299 298 297 296 295 294 293 292 292 290 289 287 285 284 283 281 280 278 276 275 274 274 273 272 271 269 268 266 264 262 259 256 254 253 252 251 251 251 250 249 249 249 249 249 248 247
304 305 304 304 304 304 305 306 306 306 306 305 304 303 302 302 302 302 302 302 301 301 300 300 299 298 298 297 296 295 294 292 290 288 286 285 283 282 281 280 278 276 275 274 274 273 272 270 269 268 266 263 261 258 254 252 251 250 249 248 248 248 247 247 247 247 247 248 248
306 306 306 305 305 305 306 306 306 306 305 305 304 303 303 304 304 304 304 303 302 301 300 299 299 298 297 296 295 294 293 291 289 288 286 285 284 282 281 279 277 276 276 275 274 273 272 271 269 268 266 263 261 257 253 250 249 247 246 246 245 245 244 243 244 244 245 245 246
308 308 308 307 306 306 306 307 307 306 306 305 305 305 305 304 303 303 303 303 303 302 301 300 299 297 295 294 292 291 291 290 289 288 287 286 285 283 281 279 277 276 276 276 275 274 273 271 270 268 266 264 260 256 251 249 247 245 244 243 243 243 242 241 241 241 242 242 242
310 309 308 306 306 306 307 307 307 307 306 306 306 306 305 305 304 304 304 305 305 304 302 301 300 298 296 294 293 292 290 290 289 288 287 286 285 283 281 280 278 278 277 277 276 275 273 272 270 269 267 264 260 254 249 247 245 243 242 241 241 240 239 239 239 239 238 238 238
309 308 307 306 306 307 307 308 308 307 307 306 306 305 305 306 306 306 307 308 306 304 302 301 300 298 296 295 294 292 291 289 289 288 288 287 285 283 282 281 280 279 279 278 277 276 274 273 271 269 266 263 258 253 249 246 244 242 241 241 241 239 237 236 236 236 235 234 234
310 309 307 306 306 307 307 308 307 307 306 305 305 305 305 307 307 307 308 308 306 304 302 301 299 297 295 295 294 292 291 289 288 288 288 287 285 284 283 283 282 282 281 280 279 277 276 274 271 269 266 261 256 251 247 245 243 242 241 240 240 238 236 234 233 233 232 231 231
310 309 308 306 305 305 306 306 306 305 305 305 305 306 307 308 307 307 307 306 303 301 300 299 297 296 295 296 295 294 292 290 289 288 287 286 285 285 285 285 284 283 282 282 281 280 278 276 273 270 267 261 255 250 246 243 242 241 240 239 239 237 235 232 231 230 230 229 230
309 308 307 305 304 304 305 305 304 304 303 304 305 305 306 307 306 306 305 304 302 300 298 297 296 296 296 296 295 294 293 292 291 290 288 287 286 286 286 286 285 284 284 283 283 282 280 278 276 272 269 262 254 248 244 242 241 240 239 238 237 236 234 231 229 228 228 228 228
308 308 306 304 304 304 304 304 303 303 302 302 303 304 305 305 305 305 305 303 302 300 298 297 296 296 297 297 296 295 294 293 292 291 290 288 287 287 287 286 285 284 284 283 283 282 281 280 278 275 271 264 255 247 242 240 240 240 239 237 235 234 233 230 228 227 226 225 225